Amunt
Inicio > meteoXarxa
Fes-te'n soci

METEOXARXA

Catí
Ubicació poble
Comarca l′Alt Maestrat
Altitud (msnm) 661
Posició geogràfica 40° 28' 18.84" N, 00° 1' 18.12" E
Model Davis Vantage Pro2
Presa de dades
Font de les dades Meteocatí
Estadístiques. Resum
Data Temperatura (ºC) Humitat (%) Pressió (hPa) Vent (km/h) Precipit. (mm)
Mínima Mitjana Màxima Mínima Mitjana Màxima Mínima Mitjana Màxima Predom. Mitjana Ràfega màxima Total Dies de pluja
Mínima Mitjana Màxima Mínima Mitjana Màxima
Últimes dades diàries
21-01-2017 2,2     4,2     6,2 69,0 82,0 95,0 1.016,0 1.018,0 1.020,0 60,0 12,0  
20-01-2017 1,5     3,1     4,8 90,0 92,0 94,0 1.018,0 1.019,5 1.021,0 44,0 91,4  
19-01-2017 -1,5     0,8     3,1 55,0 73,5 92,0 1.020,0 1.022,0 1.024,0 42,0 23,4  
18-01-2017 -3,6     -0,5     2,6 33,0 50,0 67,0 1.019,0 1.021,5 1.024,0 48,0 0,0  
17-01-2017 -2,1     2,6     7,4 27,0 49,0 71,0 1.011,0 1.015,0 1.019,0 68,0 0,0  
16-01-2017 4,8     7,8     10,7 60,0 72,5 85,0 1.012,0 1.016,5 1.021,0 92,0 0,8  
15-01-2017 2,9     5,5     8,2 52,0 63,0 74,0 1.020,0 1.022,5 1.025,0 84,0 0,0  
14-01-2017 2,4     4,3     6,2 44,0 57,0 70,0 1.019,0 1.022,0 1.025,0 90,0 0,0  
13-01-2017 3,1     8,5     13,9 48,0 63,0 78,0 1.013,0 1.017,5 1.022,0 72,0 0,0  
12-01-2017 6,9     12,3     17,7 46,0 65,0 84,0 1.015,0 1.019,5 1.024,0 72,0 0,0  
11-01-2017 6,4     9,1     11,8 68,0 75,5 83,0 1.012,0 1.018,0 1.024,0 81,0 0,0  
10-01-2017 6,4     8,0     9,5 53,0 66,0 79,0 1.009,0 1.015,0 1.021,0 109,0 0,0  
09-01-2017 3,2     7,5     11,7 50,0 63,5 77,0 1.021,0 1.024,0 1.027,0 56,0 0,0  
08-01-2017 2,1     7,2     12,3 24,0 42,5 61,0 1.024,0 1.027,5 1.031,0 52,0 0,0  
07-01-2017 -1,3     5,0     11,2 37,0 64,5 92,0 1.029,0 1.030,5 1.032,0 19,0 0,0  
06-01-2017 -0,9     5,1     11,1 28,0 60,0 92,0 1.025,0 1.027,5 1.030,0 19,0 0,0  
05-01-2017 4,8     8,9     13,1 27,0 48,0 69,0 1.017,0 1.021,0 1.025,0 93,0 0,0  
04-01-2017 9,5     11,7     13,9 30,0 49,0 68,0 1.019,0 1.021,0 1.023,0 97,0 0,0  
03-01-2017 4,6     9,8     14,9 25,0 55,5 86,0 1.022,0 1.023,0 1.024,0 40,0 0,2  
02-01-2017 -1,7     3,8     9,4 60,0 80,0 100,0 1.022,0 1.023,0 1.024,0 23,0 0,2  
01-01-2017 -0,8     4,8     10,4 56,0 75,0 94,0 1.023,0 1.027,0 1.031,0 24,0 0,4  
31-12-2016 1,3     6,0     10,6 62,0 77,0 92,0 1.031,0 1.033,0 1.035,0 26,0 0,0  
30-12-2016 -1,5     4,3     10,2 65,0 77,0 89,0 1.034,0 1.035,5 1.037,0 13,0 0,0  
29-12-2016 0,9     10,4     20,0 14,0 42,5 71,0 1.032,0 1.034,0 1.036,0 15,0 0,0  
28-12-2016 1,7     8,4     15,2 29,0 55,5 82,0 1.035,0 1.037,0 1.039,0 13,0 0,0  
27-12-2016 3,1     9,5     15,9 35,0 59,0 83,0 1.031,0 1.033,5 1.036,0 11,0 0,0  
26-12-2016 5,0     11,2     17,4 32,0 53,5 75,0 1.029,0 1.030,5 1.032,0 13,0 0,0  
25-12-2016 7,2     12,5     17,8 39,0 60,0 81,0 1.030,0 1.033,0 1.036,0 40,0 0,0  
24-12-2016 9,6     11,0     12,4 65,0 72,0 79,0 1.035,0 1.036,0 1.037,0 50,0 0,0  
23-12-2016 7,9     10,3     12,8 68,0 75,5 83,0 1.034,0 1.035,0 1.036,0 48,0 0,0  
22-12-2016 7,1     9,9     12,8 56,0 69,5 83,0 1.030,0 1.032,5 1.035,0 39,0 0,0  
21-12-2016 4,8     7,8     10,7 61,0 70,5 80,0 1.021,0 1.026,0 1.031,0 56,0 0,0  
Dades del mes en curs (actualitzades fins l'últim dia disponible)
01/2017 -3,6 2,3 9,5 6,2 2,6 10,0 17,7 24,0 64,1 100,0 1.009,0 1.021,5 1.032,0   109,0 128,4  
Últimes dades mensuals
12/2016 -1,5 4,4 10,3 8,6 6,3 12,7 20,0 42,5 76,3 95,0 1.016,0 1.027,8 1.037,0 68,0 111,0 15
11/2016 2,4 7,1 11,1 10,7 8,7 14,3 22,6 57,0 71,7 92,0 1.002,5 1.015,8 1.030,5 81,0 94,4 11
10/2016 6,8 11,1 14,2 15,6 12,9 20,0 24,9 61,0 76,3 89,0 1.001,5 1.017,0 1.029,5 64,0 36,8 17
09/2016 8,6 14,7 23,4 19,7 17,7 24,6 35,7 32,0 66,8 83,0 1.010,5 1.017,7 1.027,0 85,0 62,4 13
08/2016 11,8 15,7 19,1 21,5 22,5 27,3 30,5 53,5 66,4 81,0 1.009,5 1.017,7 1.023,5 64,0 4,4 3
07/2016 12,2 16,2 21,7 22,2 24,1 28,1 31,7 40,0 59,8 74,0 1.012,5 1.016,5 1.020,5 68,0 3,8 5
06/2016 11,2 14,1 18,5 19,5 19,9 24,9 30,4 47,0 62,0 78,0 1.001,5 1.015,1 1.023,0 84,0 14,8 7
05/2016 4,5 9,8 13,9 14,1 11,7 18,7 24,6 41,5 68,6 94,5 1.005,5 1.014,4 1.023,0 81,0 83,0 12
04/2016 2,1 6,6 10,2 11,0 9,7 15,5 23,4 53,0 69,0 88,5 1.006,5 1.013,3 1.020,0 100,0 65,2 12
03/2016 2,6 4,8 12,2 8,7 5,9 12,7 19,8 45,5 66,6 94,0 1.003,0 1.014,4 1.022,5 114,0 49,2 11
02/2016 -2,4 4,1 12,4 8,6 6,1 13,1 19,5 52,5 64,5 85,0 991,0 1.016,6 1.035,0 116,0 40,4 9
01/2016 -0,1 4,5 8,9 8,9 6,0 13,2 18,7 48,5 69,1 90,0 1.003,5 1.020,4 1.033,5 87,0 5,6 7
12/2015 1,7 4,6 9,7 9,9 10,7 15,2 20,0 53,5 74,0 91,5 1.023,0 1.030,5 1.036,0 44,0 3,0 11
Dades de l'any en curs (actualitzades fins l'últim dia disponible)
2017 -3,6 2,3 9,5 6,2 2,6 10,0 17,7 24,0 64,1 100,0 1.009,0 1.021,5 1.032,0   109,0 128,4  
Últimes dades anuals
2008 -0,9 3,8 6,8 10,3 19,0 17,9 127,0 853,1 20
2009 -4,6 9,3 19,6 13,9 0,4 19,0 36,1 10,7 136,8 620,5 133
2010 -4,0 8,7 25,2 13,0 -0,6 17,6 37,6 26,5 66,5 94,5 9,9 109,4 664,0 132
2011 -5,0 9,5 19,6 14,1 3,4 18,8 32,4 38,5 69,9 96,5 8,5 111,0 814,6 124
2012 -5,5 9,1 12,7 13,9 17,6 18,7 34,3 52,6 65,4 78,0 1.014,8 1.017,0 1.019,3 10,1 121,0 587,0 110
2013 -3,4 9,0 12,9 13,5 16,4 18,1 30,4 59,0 67,4 89,0 1.005,7 1.016,5 1.027,5 13,5 119,0 705,4 112
2014 -2,0 10,0 20,7 14,5 6,5 19,1 32,2 19,5 68,5 93,0 994,0 1.014,8 1.033,0 126,0 807,4 132
2015 -2,9 9,8 15,7 14,5 16,8 19,2 36,5 57,9 66,9 76,0 1.014,3 1.018,6 1.030,5 2,7 126,0 1.003,4 120